Waarnemingen

Advertentie
Mijn weer
Leutkirch-Herlazhofen, Duitsland (10945): temperatuur & dauwpunt: 14.07.2018 22:00:00 - 20.07.2018 22:00:00 (CEST)Leutkirch-Herlazhofen, Duitsland (10945): temperatuur 5cm & temperatuur -5cm: 14.07.2018 22:00:00 - 20.07.2018 22:00:00 (CEST)Leutkirch-Herlazhofen, Duitsland (10945): temperatuur -20cm & temperatuur -100cm: 14.07.2018 22:00:00 - 20.07.2018 22:00:00 (CEST)Leutkirch-Herlazhofen, Duitsland (10945): windsnelheid & windstoten: 14.07.2018 22:00:00 - 20.07.2018 22:00:00 (CEST)Leutkirch-Herlazhofen, Duitsland (10945): windrichting: 14.07.2018 22:00:00 - 20.07.2018 22:00:00 (CEST)Leutkirch-Herlazhofen, Duitsland (10945): luchtdruk: 14.07.2018 22:00:00 - 20.07.2018 22:00:00 (CEST)Leutkirch-Herlazhofen, Duitsland (10945): zicht: 14.07.2018 22:00:00 - 20.07.2018 22:00:00 (CEST)Leutkirch-Herlazhofen, Duitsland (10945): Zonneschijnduur: 14.07.2018 22:00:00 - 20.07.2018 22:00:00 (CEST)Leutkirch-Herlazhofen, Duitsland (10945): neerslag: 14.07.2018 22:00:00 - 20.07.2018 22:00:00 (CEST)
Datum & Tijd tt [°C] td [°C] tt 5cm [°C] tt -5cm [°C] tt -20cm [°C] tt -100cm [°C] ff [km/u] ff [kn] fx [km/u] fx [kn] dd ppp [hPa] vv [km] sd [min] rr [mm]
20.07.2018 22:00:00 15,8 14,8 15,4 23,9 24,6 18,1 16 8 41 22 ZZO 1013,8 22 0 0,5
20.07.2018 21:00:00 19,4 13,5 17,7 25,8 24,8 18,1 15 8 24 13 Z 1012,6 15 0 0,4
20.07.2018 20:00:00 23,3 15,2 22,8 27,5 24,8 18,1 3 2 8 5 N 1010,4 38 0 0,0
20.07.2018 19:00:00 23,9 16,9 24,5 28,9 24,6 18,1 5 3 10 5 OZO 1010,2 36 4 0,0
20.07.2018 18:00:00 24,7 14,6 28,2 29,9 24,4 18,0 9 5 20 11 NO 1010,0 39 51 0,0
20.07.2018 17:00:00 24,1 14,4 26,4 30,8 23,9 18,0 14 8 31 17 NO 1010,2 47 15 0,0
20.07.2018 16:00:00 26,0 13,4 30,2 32,8 23,3 18,0 11 6 31 17 NNW 1010,0 40 59 0,0
20.07.2018 15:00:00 27,7 12,7 34,5 31,9 22,6 18,0 6 4 20 11 ZW 1009,7 27 60 0,0
20.07.2018 14:00:00 26,5 11,2 32,9 30,3 22,1 18,0 8 4 16 8 WNW 1010,7 18 60 0,0
20.07.2018 13:00:00 24,8 14,1 29,1 28,0 21,6 18,0 9 5 16 9 WZW 1011,6 36 40 0,0
20.07.2018 12:00:00 23,9 13,7 27,9 26,5 21,2 18,0 8 5 17 9 W 1012,3 42 19 0,0
20.07.2018 11:00:00 24,3 15,1 30,3 25,1 20,9 18,0 9 5 19 10 ZZW 1012,1 35 60 0,0
20.07.2018 10:00:00 22,7 13,6 26,6 22,5 20,8 18,0 5 3 9 5 W 1012,7 35 48 0,0
20.07.2018 09:00:00 20,4 14,0 23,4 20,0 20,9 18,0 3 2 5 3 NNO 1013,1 34 57 0,0
20.07.2018 08:00:00 17,1 13,0 18,7 18,1 21,1 18,0 3 1 5 3 ONO 1013,9 24 48 0,0
20.07.2018 07:00:00 13,1 10,7 12,7 17,2 21,5 18,0 3 1 5 3 OZO 1015,2 20 40 0,0
20.07.2018 06:00:00 10,7 10,0 8,9 17,4 21,8 18,0 4 2 5 3 ZZW 1015,9 16 0 0,0
20.07.2018 05:00:00 11,3 10,5 8,9 17,9 22,2 18,0 2 1 6 3 ZO 1016,0 10 0 0,0
20.07.2018 04:00:00 11,0 10,4 8,8 18,5 22,5 18,0 4 2 4 2 Z 1016,2 12 0 0,0
20.07.2018 03:00:00 12,1 11,0 9,6 19,2 22,9 18,0 2 1 4 2 ZO 1015,9 21 0 0,0
20.07.2018 02:00:00 12,8 11,1 10,4 20,0 23,3 18,0 3 2 5 3 ZZO 1016,3 22 0 0,0
20.07.2018 01:00:00 12,6 11,6 11,0 20,8 23,7 18,0 3 2 5 3 Z 1016,7 18 0 0,0
20.07.2018 00:00:00 13,7 11,9 11,3 21,8 24,1 17,9 4 2 6 4 NW 1016,2 22 0 0,0
19.07.2018 23:00:00 14,6 12,9 11,7 23,0 24,4 17,9 0 0 6 3 N 1016,2 23 0 0,0
19.07.2018 22:00:00 16,8 13,9 14,2 24,5 24,6 17,9 3 1 7 4 ZZO 1015,3 8 0 0,0
19.07.2018 21:00:00 21,9 12,1 17,5 26,2 24,6 17,9 5 3 13 7 ONO 1013,7 56 32 0,0
19.07.2018 20:00:00 23,8 12,1 23,9 27,8 24,6 17,9 8 4 18 10 NO 1013,1 54 60 0,0
19.07.2018 19:00:00 25,0 11,3 26,9 29,3 24,3 17,9 11 6 22 12 NO 1012,9 40 60 0,0
19.07.2018 18:00:00 25,4 11,8 28,2 30,7 23,9 17,9 10 5 20 11 NNO 1012,9 40 60 0,0
19.07.2018 17:00:00 25,8 11,2 30,1 31,6 23,4 17,9 8 4 19 11 ONO 1013,3 40 60 0,0
19.07.2018 16:00:00 25,8 12,2 30,3 31,8 22,8 17,9 10 5 22 12 NO 1013,6 41 60 0,0
19.07.2018 15:00:00 25,8 12,6 32,7 31,3 22,2 17,9 8 4 19 11 NNO 1013,9 25 49 0,0
19.07.2018 14:00:00 25,0 11,7 31,1 30,0 21,6 17,9 9 5 23 12 O 1014,4 32 58 0,0
19.07.2018 13:00:00 23,7 11,2 29,4 28,3 21,0 17,9 11 6 21 11 NO 1015,1 37 28 0,0
19.07.2018 12:00:00 23,2 12,2 28,6 26,1 20,6 17,9 9 5 19 10 NO 1015,2 41 60 0,0
19.07.2018 11:00:00 21,9 13,4 26,0 23,9 20,4 17,9 10 6 17 9 NO 1015,6 28 60 0,0
19.07.2018 10:00:00 19,9 13,0 24,1 21,3 20,3 17,9 9 5 14 8 NNO 1016,0 20 60 0,0
19.07.2018 09:00:00 18,7 12,2 21,7 19,2 20,4 17,9 6 4 9 5 NO 1016,4 27 58 0,0
19.07.2018 08:00:00 16,4 11,6 17,5 17,4 20,7 17,9 0 0 5 3 N 1017,0 17 47 0,0
19.07.2018 07:00:00 12,5 11,5 12,4 16,5 21,0 17,9 3 2 7 4 ZO 1017,7 9 44 0,0
19.07.2018 06:00:00 10,7 10,3 7,8 16,8 21,4 17,9 0 0 5 3 N 1018,0 9 0 0,0
19.07.2018 05:00:00 10,3 9,8 8,2 17,3 21,7 17,9 5 3 6 3 W 1018,2 14 0 0,0
19.07.2018 04:00:00 11,6 10,3 9,0 18,0 22,1 17,9 3 1 4 2 ZW 1017,9 15 0 0,0
19.07.2018 03:00:00 11,5 10,9 9,4 18,6 22,5 17,9 3 2 5 3 NNW 1018,3 14 0 0,0
19.07.2018 02:00:00 12,1 10,8 9,7 19,4 22,9 17,9 3 2 4 2 W 1018,0 17 0 0,0
19.07.2018 01:00:00 13,3 12,1 10,4 20,4 23,2 17,9 0 0 10 6 N 1017,5 14 0 0,0
19.07.2018 00:00:00 15,2 12,5 11,4 21,4 23,6 17,9 4 2 10 5 ONO 1017,1 26 0 0,0
18.07.2018 23:00:00 15,5 13,5 12,5 22,6 23,9 17,9 6 3 8 5 ONO 1016,5 18 0 0,0
18.07.2018 22:00:00 17,6 14,6 14,4 24,1 24,1 17,9 3 1 9 5 O 1015,6 7 0 0,0
18.07.2018 21:00:00 22,1 13,1 19,3 25,8 24,1 17,9 6 3 14 7 ONO 1014,0 41 28 0,0
18.07.2018 20:00:00 24,2 12,2 24,0 27,5 24,0 17,9 7 4 16 9 NO 1013,3 61 60 0,0
18.07.2018 19:00:00 26,6 11,0 28,4 28,9 23,7 17,9 4 2 15 8 WNW 1012,7 64 60 0,0
18.07.2018 18:00:00 26,4 9,0 29,4 30,2 23,3 17,9 9 5 16 9 W 1013,3 38 60 0,0
18.07.2018 17:00:00 26,4 10,0 31,2 31,0 22,8 17,9 8 5 16 9 NW 1013,5 45 60 0,0
18.07.2018 16:00:00 26,1 10,8 31,3 31,1 22,1 17,9 8 4 21 11 WZW 1013,8 42 60 0,0
18.07.2018 15:00:00 25,5 11,5 31,5 30,7 21,5 17,9 8 4 16 9 WZW 1014,4 45 60 0,0
18.07.2018 14:00:00 24,5 11,2 31,0 29,2 20,9 17,9 8 4 21 11 ZW 1015,1 21 3 0,0
18.07.2018 13:00:00 24,0 13,7 29,4 27,5 20,3 17,9 10 5 19 10 W 1015,6 24 13 0,0
18.07.2018 12:00:00 22,6 12,6 28,0 25,6 19,9 17,9 9 5 19 10 W 1016,1 36 50 0,0
18.07.2018 11:00:00 21,5 13,3 25,9 23,2 19,6 17,9 7 4 17 9 WZW 1016,5 39 60 0,0
18.07.2018 10:00:00 20,6 12,3 24,2 20,9 19,5 17,9 7 4 13 7 WZW 1017,1 44 60 0,0
18.07.2018 09:00:00 19,2 11,3 21,5 18,9 19,5 17,9 7 4 12 6 Z 1017,5 39 55 0,0
18.07.2018 08:00:00 17,0 13,1 17,9 17,0 19,7 17,9 2 1 9 5 ZZW 1018,1 37 36 0,0
18.07.2018 07:00:00 13,9 11,7 13,4 16,4 19,9 17,9 9 5 10 5 ZZO 1018,8 29 37 0,0
18.07.2018 06:00:00 12,2 11,2 11,5 16,2 20,2 17,8 2 1 6 3 ZW 1019,2 23 0 0,0
18.07.2018 05:00:00 11,0 10,1 9,4 16,4 20,5 17,8 0 0 6 4 N 1019,5 27 0 0,0
18.07.2018 04:00:00 11,8 11,1 9,3 17,0 20,8 17,8 5 3 8 4 ZO 1019,3 21 0 0,0
18.07.2018 03:00:00 12,7 11,1 10,1 17,7 21,0 17,8 6 3 9 5 ZO 1019,0 33 0 0,0
18.07.2018 02:00:00 14,4 11,7 10,8 18,6 21,2 17,8 5 3 10 5 ZZO 1018,4 42 0 0,0
18.07.2018 01:00:00 16,0 12,5 14,2 19,4 21,4 17,8 7 4 11 6 Z 1018,0 49 0 0,0
18.07.2018 00:00:00 16,1 13,8 15,1 19,9 21,6 17,8 8 4 9 5 ZO 1017,8 35 0 0,2
17.07.2018 23:00:00 16,1 13,8 15,6 20,3 21,8 17,8 4 2 13 7 ZZO 1017,7 23 0 0,0
17.07.2018 22:00:00 17,2 12,7 16,0 20,9 22,0 17,8 8 4 12 6 Z 1017,2 54 0 0,0
17.07.2018 21:00:00 18,2 12,2 16,9 21,8 22,1 17,8 6 4 17 9 OZO 1016,7 68 0 0,0
17.07.2018 20:00:00 20,3 12,9 19,9 22,9 22,1 17,8 5 3 27 15 WNW 1015,8 70 18 0,0
17.07.2018 19:00:00 21,8 11,1 22,6 23,8 22,0 17,8 24 13 32 18 WZW 1015,0 18 59 0,0
17.07.2018 18:00:00 23,1 11,2 25,8 24,3 21,9 17,8 14 7 22 12 WZW 1014,4 24 48 0,0
17.07.2018 17:00:00 19,3 11,1 20,2 23,8 21,8 17,8 17 9 36 20 WZW 1015,7 57 4 0,0
17.07.2018 16:00:00 23,3 10,2 26,6 25,1 21,5 17,8 13 7 28 15 ZW 1014,6 23 8 0,0
17.07.2018 15:00:00 19,8 9,8 21,2 25,8 21,2 17,8 21 11 38 20 WZW 1015,7 70 9 0,0
17.07.2018 14:00:00 23,3 10,6 25,4 26,1 20,7 17,8 14 8 29 15 WNW 1014,1 35 52 0,0
17.07.2018 13:00:00 22,9 13,6 27,3 25,3 20,3 17,8 14 7 24 13 WZW 1014,5 36 58 0,0
17.07.2018 12:00:00 22,1 13,5 25,7 24,2 20,0 17,8 14 8 22 12 WZW 1014,8 24 60 0,0
17.07.2018 11:00:00 21,6 14,0 26,0 22,5 19,7 17,8 15 8 21 11 WZW 1014,7 21 60 0,0
17.07.2018 10:00:00 20,3 14,9 23,6 20,7 19,6 17,8 11 6 21 11 ZW 1014,9 18 60 0,0
17.07.2018 09:00:00 18,7 15,2 21,1 18,6 19,7 17,8 9 5 13 7 Z 1015,1 24 60 0,0
17.07.2018 08:00:00 15,9 13,7 15,9 16,8 19,9 17,8 6 4 9 5 ZZO 1015,7 29 40 0,0
17.07.2018 07:00:00 13,4 11,2 12,6 15,7 20,2 17,8 0 0 9 5 N 1016,1 24 44 0,0
17.07.2018 06:00:00 10,9 10,5 9,3 15,8 20,5 17,8 5 3 9 5 ZO 1016,4 21 0 0,0
17.07.2018 05:00:00 10,4 10,3 8,4 16,2 20,9 17,8 2 1 7 4 Z 1016,3 15 0 0,0
17.07.2018 04:00:00 11,0 10,8 8,9 16,7 21,3 17,8 6 3 9 5 ZZO 1015,7 26 0 0,0
17.07.2018 03:00:00 11,0 10,5 8,7 17,3 21,6 17,7 2 1 6 3 ZW 1015,7 17 0 0,0
17.07.2018 02:00:00 11,7 11,2 9,2 18,0 22,0 17,7 3 2 6 3 ZZW 1015,5 21 0 0,0
17.07.2018 01:00:00 12,1 12,0 9,3 18,8 22,4 17,7 2 1 6 3 ZO 1014,9 6 0 0,0
17.07.2018 00:00:00 12,8 12,2 10,6 19,8 22,7 17,7 3 2 6 3 ZZW 1014,2 24 0 0,0
16.07.2018 23:00:00 13,4 12,5 11,3 21,0 23,0 17,7 3 2 5 3 ZZW 1013,7 14 0 0,0
16.07.2018 22:00:00 15,9 13,2 13,1 22,3 23,1 17,7 5 3 9 5 ONO 1013,0 16 5 0,0
16.07.2018 21:00:00 19,5 13,5 17,5 23,7 23,2 17,7 6 3 15 8 NO 1011,3 62 60 0,0
16.07.2018 20:00:00 21,1 12,9 21,6 25,0 23,2 17,7 9 5 21 11 NO 1010,2 55 59 0,0
16.07.2018 19:00:00 21,7 13,4 23,7 26,1 23,1 17,7 11 6 21 11 NO 1009,8 51 51 0,0
16.07.2018 18:00:00 21,9 13,7 23,7 27,1 22,8 17,7 11 6 20 11 ONO 1009,8 38 29 0,0
16.07.2018 17:00:00 22,6 14,0 26,3 28,0 22,4 17,7 10 5 22 12 NO 1010,0 44 27 0,0
16.07.2018 16:00:00 21,5 14,5 26,1 28,0 22,0 17,7 15 8 31 17 ONO 1010,8 16 50 0,0
16.07.2018 15:00:00 24,0 11,4 29,3 28,1 21,5 17,7 11 6 24 13 W 1010,1 19 59 0,0
16.07.2018 14:00:00 23,2 10,4 27,8 26,8 21,1 17,7 13 7 23 12 WZW 1011,0 21 55 0,0
16.07.2018 13:00:00 22,7 12,3 26,5 26,1 20,7 17,7 9 5 17 9 WZW 1011,8 26 49 0,0
16.07.2018 12:00:00 21,3 12,4 24,8 24,3 20,3 17,7 11 6 21 12 ZZW 1012,5 47 52 0,0
16.07.2018 11:00:00 19,7 12,7 21,5 22,8 20,1 17,7 13 7 19 11 Z 1013,2 43 32 0,0
16.07.2018 10:00:00 19,9 14,8 20,5 20,8 20,1 17,7 2 1 11 6 NNO 1013,7 50 49 0,0
16.07.2018 09:00:00 16,9 14,1 17,0 18,9 20,2 17,6 6 4 9 5 ZO 1014,9 53 7 0,0
16.07.2018 08:00:00 15,4 14,6 15,3 18,1 20,3 17,6 5 3 7 4 OZO 1015,5 26 0 0,0
16.07.2018 07:00:00 14,6 14,2 14,5 17,8 20,5 17,6 3 2 9 5 O 1015,8 16 0 0,2
16.07.2018 06:00:00 14,4 14,2 14,4 17,9 20,7 17,6 4 2 6 3 N 1015,6 6 0 0,5
16.07.2018 05:00:00 14,6 14,1 14,3 18,0 21,0 17,6 4 2 11 6 ZZO 1015,4 24 0 0,7
16.07.2018 04:00:00 15,0 13,9 14,4 18,2 21,2 17,6 8 5 10 6 ZO 1015,4 16 0 1,8
16.07.2018 03:00:00 15,1 13,2 14,6 18,4 21,5 17,6 6 3 11 6 ZZW 1015,5 61 0 0,0
16.07.2018 02:00:00 14,8 12,7 14,3 18,5 21,9 17,6 8 5 16 9 Z 1016,0 57 0 0,0
16.07.2018 01:00:00 14,6 12,5 14,1 19,0 22,2 17,6 13 7 18 10 Z 1016,6 70 0 0,0
16.07.2018 00:00:00 14,8 12,2 14,3 19,6 22,5 17,6 9 5 11 6 ZZW 1016,9 70 0 0,0
15.07.2018 23:00:00 14,7 12,1 13,3 20,3 22,9 17,5 6 3 14 8 Z 1016,1 70 0 0,0
15.07.2018 22:00:00 16,0 13,8 14,7 21,4 23,1 17,5 9 5 22 12 Z 1015,4 54 0 0,0
15.07.2018 21:00:00 17,4 14,0 17,1 22,5 23,3 17,5 16 9 39 21 ZZO 1015,0 54 0 0,0
15.07.2018 20:00:00 20,4 12,2 19,5 24,1 23,4 17,5 9 5 29 15 ONO 1013,9 70 4 0,0
15.07.2018 19:00:00 21,1 11,8 21,1 26,0 23,3 17,5 15 8 35 19 NO 1013,8 35 42 0,0
15.07.2018 18:00:00 23,0 13,6 23,4 28,1 23,0 17,5 13 7 21 12 ONO 1012,6 65 51 0,0
15.07.2018 17:00:00 25,1 10,5 28,0 28,4 22,5 17,5 8 4 13 7 NW 1012,2 47 60 0,0
15.07.2018 16:00:00 25,2 12,6 28,6 28,6 22,0 17,5 4 2 12 6 W 1012,3 56 60 0,0
15.07.2018 15:00:00 23,9 12,8 27,7 28,0 21,6 17,5 6 3 11 6 NNO 1013,4 35 60 0,0
15.07.2018 14:00:00 23,6 13,0 27,7 25,3 21,4 17,5 5 3 10 5 W 1013,8 48 35 0,0
15.07.2018 13:00:00 20,4 14,4 21,9 22,6 21,2 17,5 5 3 8 5 W 1015,2 52 0 0,0
15.07.2018 12:00:00 20,3 13,9 20,9 23,2 21,1 17,4 6 3 13 7 W 1015,8 61 17 0,0
15.07.2018 11:00:00 19,4 15,4 21,4 21,3 21,0 17,4 9 5 11 6 ZZW 1016,1 30 4 0,0
15.07.2018 10:00:00 18,5 15,3 19,3 20,8 21,1 17,4 8 4 16 9 Z 1016,4 37 3 0,0
15.07.2018 09:00:00 18,5 14,7 19,4 19,9 21,2 17,4 12 6 18 10 ZZW 1016,6 33 43 0,0
15.07.2018 08:00:00 17,4 13,9 18,4 18,7 21,5 17,4 9 5 15 8 Z 1016,6 40 41 0,0
15.07.2018 07:00:00 15,1 13,7 14,5 18,4 21,8 17,4 11 6 18 10 Z 1017,0 32 15 0,0
15.07.2018 06:00:00 14,3 13,1 13,9 18,7 22,1 17,4 9 5 16 9 ZZW 1017,5 58 0 0,0
15.07.2018 05:00:00 14,2 13,5 14,0 19,0 22,4 17,4 2 1 14 7 N 1017,4 41 0 0,0
15.07.2018 04:00:00 14,3 13,5 13,6 19,3 22,9 17,4 4 2 19 10 W 1016,8 29 0 0,0
15.07.2018 03:00:00 16,1 13,2 15,2 19,6 23,3 17,4 18 10 43 23 ZO 1016,8 38 0 9,2
15.07.2018 02:00:00 16,0 14,4 15,4 21,5 23,6 17,3 5 3 14 8 Z 1016,7 10 0 0,0
15.07.2018 01:00:00 14,7 13,8 13,7 22,0 24,0 17,3 2 1 8 4 ZW 1017,1 17 0 0,0
15.07.2018 00:00:00 14,5 12,9 13,4 22,8 24,3 17,3 2 1 5 3 WNW 1017,2 19 0 0,0
14.07.2018 23:00:00 16,6 13,8 14,8 23,9 24,6 17,3 3 2 11 6 WZW 1016,8 21 0 0,0
14.07.2018 22:00:00 19,0 13,3 16,2 25,2 24,8 17,3 5 3 14 8 NO 1016,0 43 0 0,0

tt = temperatuur
td = dauwpunt
tt 5cm = temperatuur 5cm
tt -5cm = temperatuur -5cm
tt -20cm = temperatuur -20cm
tt -100cm = temperatuur -100cm
ff = windsnelheid
fx = windstoten
dd = windrichting
ppp = luchtdruk
vv = zicht
sd = Zonneschijnduur
rr = neerslag

Weerstations in de omgeving